DateTimeUTC,F1_A11,F1_S11,BsB_S11,BsG_S11,BsR_S11,BbsB_S11,BbsG_S11,BbsR_S11,BaB_A11,BaG_A11,BaR_A11,Tu_S11,T_S11,Uu_S11,U_S11,P_S11,T1_A11
2021-07-15T04:00:00Z,00000200,20000000,,,,,,,-000.11,0000.13,0000.39,18.3,25.0,08.3,05.5,0660.2,31.0
2021-07-15T04:01:00Z,00000200,20000000,,,,,,,0000.05,0000.16,-000.32,18.3,25.0,08.3,05.5,0660.2,31.0
2021-07-15T04:02:00Z,00000200,20000000,,,,,,,0000.18,-000.05,-000.03,18.3,25.0,08.3,05.5,0660.2,31.0
2021-07-15T04:03:00Z,00000200,60000000,,,,,,,-000.27,-000.09,0000.07,18.3,25.0,08.3,05.5,0660.2,31.0
2021-07-15T04:04:00Z,00000200,40000000,-000.27,0000.17,-000.37,0000.36,0000.16,-000.02,0000.30,0000.00,-000.09,18.3,24.8,08.3,05.6,0661.2,31.0
2021-07-15T04:05:00Z,00000200,00000000,0000.14,-000.14,0000.03,0000.50,0000.09,-000.15,0000.29,0000.44,0000.20,18.3,24.7,08.3,05.6,0661.3,31.0
2021-07-15T04:06:00Z,00000200,00000000,0000.04,-000.02,-000.20,-000.25,0000.36,-000.01,-000.10,-000.19,-000.08,18.3,24.7,08.3,05.7,0661.3,31.0
2021-07-15T04:07:00Z,00000200,00000000,0001.04,-000.21,-000.35,0000.41,-000.08,-000.13,0000.21,0000.27,0000.10,18.4,24.7,08.3,05.7,0661.3,31.0
2021-07-15T04:08:00Z,00000200,00000000,0001.33,0000.27,-000.12,0000.22,0000.13,-000.07,-000.36,-000.41,0000.03,18.5,24.7,08.3,05.7,0661.3,31.0
2021-07-15T04:09:00Z,00000200,00000000,0000.82,-000.06,-000.07,0000.13,0000.04,0000.35,0000.32,0000.23,0000.04,18.5,24.8,08.3,05.6,0661.3,31.0
2021-07-15T04:10:00Z,00000200,00000000,0000.51,-000.27,-000.14,-000.12,0000.23,-000.20,-000.26,-000.18,0000.08,18.5,24.8,08.3,05.6,0661.3,31.0
2021-07-15T04:11:00Z,00000200,00000000,0000.06,-000.15,-000.15,0000.33,0000.06,-000.13,0000.03,-000.09,-000.50,18.5,24.8,08.2,05.6,0661.3,31.0
2021-07-15T04:12:00Z,00000200,00000000,0000.08,0000.04,0000.05,0000.28,0000.28,-000.22,-000.17,-000.06,-000.21,18.5,24.8,08.2,05.6,0661.3,31.0
2021-07-15T04:13:00Z,00000200,00000000,0000.38,0000.15,-000.24,0000.30,0000.23,0000.18,-000.30,0000.02,0000.26,18.5,24.7,08.3,05.6,0661.3,31.0
2021-07-15T04:14:00Z,00000200,00000000,0000.83,0000.06,-000.20,-000.49,0000.21,0000.00,0000.18,-000.03,-000.27,18.4,24.7,08.3,05.7,0661.3,31.0
2021-07-15T04:15:00Z,00000200,00000000,0001.25,-000.26,-000.32,-000.05,0000.03,-000.13,-000.17,0000.10,0000.35,18.4,24.7,08.3,05.6,0661.3,31.0
2021-07-15T04:16:00Z,00000200,00000000,0000.36,0000.13,0000.03,-000.38,0000.29,0000.12,0000.02,-000.37,-000.15,18.4,24.7,08.2,05.6,0661.3,31.0
2021-07-15T04:17:00Z,00000200,00000000,-000.03,0000.20,0000.17,0000.03,0000.38,0000.30,0000.03,0000.30,0000.12,18.4,24.7,08.3,05.6,0661.3,31.0
2021-07-15T04:18:00Z,00000200,00000000,0001.03,-000.13,-000.06,-000.02,0000.20,0000.05,0000.21,0000.01,0000.04,18.3,24.7,08.3,05.6,0661.3,31.0
2021-07-15T04:19:00Z,00000200,00000000,0000.71,0000.13,0000.14,-000.00,0000.30,-000.19,-000.24,-000.32,-000.23,18.3,24.7,08.3,05.6,0661.3,31.0
2021-07-15T04:20:00Z,00000200,00000000,0000.87,-000.05,0000.09,0000.76,0000.41,0000.10,0000.17,0000.11,0000.09,18.3,24.6,08.3,05.6,0661.3,31.0
2021-07-15T04:21:00Z,00000200,00000000,0000.29,0000.00,0000.03,0000.07,0000.34,0000.34,0000.07,0000.22,0000.10,18.3,24.6,08.2,05.6,0661.3,31.0
2021-07-15T04:22:00Z,00000200,00000000,0000.27,-000.04,-000.09,0000.28,0000.15,-000.16,-000.08,0000.27,0000.34,18.4,24.6,08.3,05.6,0661.3,31.0
2021-07-15T04:23:00Z,00000200,00000000,0000.36,0000.20,0000.00,0000.49,0000.38,0000.15,0000.21,-000.25,-000.36,18.5,24.7,08.2,05.6,0661.3,31.0
2021-07-15T04:24:00Z,00000200,00000000,-000.37,-000.22,0000.05,0000.66,0000.25,0000.14,0000.49,0000.22,0000.08,18.5,24.7,08.2,05.6,0661.3,31.0
2021-07-15T04:25:00Z,00000200,00000000,0000.18,0000.11,0000.41,0000.38,0000.26,-000.06,-000.67,-000.31,0000.09,18.5,24.7,08.0,05.5,0661.3,31.0
2021-07-15T04:26:00Z,00000200,00000000,0000.12,-000.07,-000.03,-000.12,0000.22,0000.23,0000.01,-000.04,-000.07,18.5,24.7,08.2,05.6,0661.3,31.0
2021-07-15T04:27:00Z,00000200,00000000,-000.05,0000.13,0000.12,-000.17,-000.09,0000.16,-000.17,-000.03,-000.01,18.5,24.7,08.1,05.5,0661.3,31.0
2021-07-15T04:28:00Z,00000200,00000000,-000.11,-000.08,-000.14,-000.04,0000.26,-000.02,0000.24,-000.03,0000.04,18.5,24.7,08.1,05.5,0661.3,31.0
2021-07-15T04:29:00Z,00000200,00000000,0000.56,0000.24,0000.04,0000.38,0000.15,-000.20,0000.05,0000.00,-000.37,18.5,24.7,08.1,05.5,0661.3,31.0
2021-07-15T04:30:00Z,00000200,00000000,0000.12,0000.03,0000.15,0000.14,0000.25,0000.03,-000.26,-000.10,0000.09,18.4,24.7,08.1,05.5,0661.3,31.0
2021-07-15T04:31:00Z,00000200,00000000,0000.28,0000.48,-000.14,0000.46,0000.26,0000.02,-000.34,0000.27,-000.01,18.4,24.7,08.1,05.5,0661.3,31.0
2021-07-15T04:32:00Z,00000200,00000000,0000.70,0000.26,-000.29,0000.14,0000.22,-000.06,0000.48,-000.34,0000.04,18.4,24.6,08.1,05.5,0661.3,31.0
2021-07-15T04:33:00Z,00000200,00000000,0000.97,-000.25,-000.07,0000.14,0000.30,-000.04,-000.32,0000.14,0000.22,18.3,24.6,08.3,05.6,0661.3,31.0
2021-07-15T04:34:00Z,00000200,00000000,0000.69,0000.11,-000.23,0000.47,0000.28,-000.22,0000.12,-000.04,-000.10,18.3,24.6,08.0,05.5,0661.3,31.0
2021-07-15T04:35:00Z,00000200,00000000,0000.84,0000.05,0000.07,-000.10,0000.18,0000.05,0000.12,0000.37,-000.01,18.3,24.6,08.1,05.5,0661.3,31.0
2021-07-15T04:36:00Z,00000200,00000000,0000.42,0000.12,0000.11,0000.55,0000.26,0000.06,-000.02,-000.07,-000.05,18.3,24.6,08.0,05.5,0661.3,31.0
2021-07-15T04:37:00Z,00000200,00000000,0000.78,0000.04,-000.20,0000.28,0000.27,0000.11,0000.16,0000.01,0000.23,18.3,24.6,08.1,05.5,0661.3,31.0
2021-07-15T04:38:00Z,00000200,00000000,0001.02,0000.14,0000.19,0000.58,0000.11,0000.35,0000.17,0000.13,-000.20,18.4,24.7,08.0,05.5,0661.3,31.0
2021-07-15T04:39:00Z,00000200,00000000,0000.50,0000.16,-000.15,0000.23,0000.39,-000.01,-000.11,-000.11,0000.17,18.5,24.7,07.9,05.4,0661.3,31.0
2021-07-15T04:40:00Z,00000200,00000000,0000.68,-000.02,0000.14,0000.02,0000.14,-000.13,0000.17,0000.03,-000.12,18.5,24.7,07.9,05.5,0661.4,31.0
2021-07-15T04:41:00Z,00000200,00000000,0000.48,0000.47,0000.16,-000.41,-000.13,0000.03,-000.38,0000.01,-000.08,18.5,24.7,07.9,05.4,0661.3,31.0
2021-07-15T04:42:00Z,00000200,00000000,0000.85,0000.10,0000.24,0000.29,-000.06,-000.15,-000.17,-000.47,0000.30,18.5,24.7,07.8,05.4,0661.3,31.0
2021-07-15T04:43:00Z,00000200,00000000,0000.48,0000.12,0000.44,0000.30,0000.11,-000.00,0000.21,0000.11,-000.48,18.5,24.7,07.9,05.4,0661.3,31.0
2021-07-15T04:44:00Z,00000200,00000000,0000.61,0000.13,-000.08,0000.13,0000.28,-000.01,-000.38,-000.32,-000.28,18.5,24.7,07.9,05.4,0661.4,31.0
2021-07-15T04:45:00Z,00000200,00000000,0000.65,0000.26,0000.26,-000.15,-000.11,0000.09,0000.13,0000.18,0000.26,18.4,24.7,07.8,05.3,0661.4,31.0
2021-07-15T04:46:00Z,00000200,00000000,-000.07,0000.20,0000.11,-000.35,0000.27,0000.06,-000.09,0000.02,0000.02,18.4,24.7,07.8,05.3,0661.4,31.0
2021-07-15T04:47:00Z,00000200,00000000,0000.80,0000.04,0000.38,-000.02,0000.16,-000.12,-000.02,-000.35,-000.26,18.4,24.6,07.8,05.3,0661.3,31.0
2021-07-15T04:48:00Z,00000200,00000000,0000.22,0000.34,0000.13,0000.09,0000.09,0000.13,-000.16,0000.22,0000.06,18.3,24.6,07.7,05.3,0661.4,31.0
2021-07-15T04:49:00Z,00000200,00000000,0000.08,0000.32,-000.07,0000.36,0000.40,-000.01,0000.09,0000.12,0000.07,18.3,24.6,07.7,05.3,0661.4,31.0
2021-07-15T04:50:00Z,00000200,00000000,0001.54,0000.51,0000.42,0000.29,0000.55,0000.24,0000.34,-000.12,0000.22,18.3,24.6,07.7,05.2,0661.4,31.0
2021-07-15T04:51:00Z,00000200,00000000,0000.86,0000.36,-000.01,-000.11,0000.30,-000.24,-000.36,0000.15,-000.04,18.3,24.5,07.7,05.2,0661.4,31.0
2021-07-15T04:52:00Z,00000200,00000000,0000.43,0000.16,0000.08,0000.03,0000.43,0000.01,0000.03,0000.09,0000.12,18.4,24.6,07.7,05.2,0661.4,31.0
2021-07-15T04:53:00Z,00000200,00000000,0000.76,0000.28,0000.47,0000.60,0000.20,0000.38,0000.04,-000.22,-000.01,18.4,24.6,07.7,05.2,0661.4,31.0
2021-07-15T04:54:00Z,00000200,00000000,0000.49,0000.37,0000.22,-000.01,0000.14,0000.08,0000.37,0000.21,-000.26,18.4,24.6,07.6,05.2,0661.4,31.0
2021-07-15T04:55:00Z,00000200,00000000,0000.33,0000.32,0000.05,-000.18,0000.18,0000.01,-000.48,0000.26,-000.28,18.4,24.7,07.6,05.2,0661.4,31.0
2021-07-15T04:56:00Z,00000200,00000000,0000.75,-000.16,0000.04,0000.34,0000.13,0000.26,-000.07,-000.63,-000.01,18.4,24.6,07.6,05.1,0661.4,31.0
2021-07-15T04:57:00Z,00000200,40000000,,,,,,,0000.25,0000.38,0000.17,18.4,24.7,07.9,05.4,0661.5,31.0
2021-07-15T04:58:00Z,00000200,60000000,,,,,,,-000.11,0000.01,-000.10,18.2,24.7,07.6,05.1,0660.4,31.0
2021-07-15T04:59:00Z,00000200,20000000,,,,,,,-000.30,-000.27,0000.10,18.1,24.8,07.5,05.0,0660.4,31.0
